Torna al catalogo

STARLINK-37350

AttivoComunicazioniSSO
NORAD 68750·PAYLOAD·🇺🇸 United States

Lanciato Apr 15, 2026 da Vandenberg Space Force Base

Loading…

Prossimi Passaggi (prossime 24 ore)

TLE

AggiornatoSource: CelesTrak SupGP

Epoca: Sep 14, 2026, 21:42 UTC

1 68750C 26082Y   26257.90465278  .00043812  00000+0  13605-2 0  2578
2 68750  97.2850 119.1484 0002269  93.9861 261.3013 15.33404611    17

Traccia STARLINK-37350 in tempo reale con AllMySat

Download on the App Store